| time (UTC) | temp F | wind direction | speed MPH | gust MPH | rain 1hr in | rain 24hr in | rain mn in | humidity % | barometer mb |
| 20260902112939 | 90 | 346 | 9.0 | 13.0 | 0.00 | 0.00 | 0.00 | 60 | 1005.7 |
| 20260902112436 | 90 | 338 | 4.0 | 10.0 | 0.00 | 0.00 | 0.00 | 60 | 1005.5 |
| 20260902111931 | 90 | 332 | 6.0 | 11.0 | 0.00 | 0.00 | 0.00 | 58 | 1005.8 |
| 20260902111428 | 90 | 348 | 9.0 | 16.0 | 0.00 | 0.00 | 0.00 | 59 | 1005.8 |
| 20260902110923 | 91 | 292 | 6.0 | 10.0 | 0.00 | 0.00 | 0.00 | 58 | 1005.7 |
| 20260902110420 | 91 | 342 | 10.0 | 13.0 | 0.00 | 0.00 | 0.00 | 56 | 1005.8 |
| 20260902105919 | 90 | 260 | 6.0 | 11.0 | 0.00 | 0.00 | 0.00 | 58 | 1005.8 |
| 20260902105414 | 91 | 354 | 3.0 | 9.0 | 0.00 | 0.00 | 0.00 | 56 | 1005.9 |
| 20260902104909 | 91 | 320 | 3.0 | 8.0 | 0.00 | 0.00 | 0.00 | 55 | 1005.8 |
| 20260902104400 | 91 | 343 | 9.0 | 11.0 | 0.00 | 0.00 | 0.00 | 56 | 1006.1 |
| 20260902103859 | 90 | 78 | 2.0 | 11.0 | 0.00 | 0.00 | 0.00 | 58 | 1005.8 |
| 20260902103355 | 91 | 300 | 10.0 | 11.0 | 0.00 | 0.00 | 0.00 | 56 | 1006.1 |
| 20260902102854 | 90 | 14 | 5.0 | 13.0 | 0.00 | 0.00 | 0.00 | 58 | 1005.8 |
| 20260902102353 | 90 | 328 | 2.0 | 7.0 | 0.00 | 0.00 | 0.00 | 59 | 1005.8 |
| 20260902101848 | 90 | 264 | 9.0 | 11.0 | 0.00 | 0.00 | 0.00 | 60 | 1006.0 |
| 20260902101343 | 91 | 347 | 2.0 | 7.0 | 0.00 | 0.00 | 0.00 | 59 | 1005.8 |
| 20260902100836 | 90 | 109 | 3.0 | 8.0 | 0.00 | 0.00 | 0.00 | 59 | 1006.1 |
| 20260902100331 | 90 | 345 | 3.0 | 7.0 | 0.00 | 0.00 | 0.00 | 60 | 1006.0 |
| 20260902095825 | 90 | 338 | 9.0 | 13.0 | 0.00 | 0.00 | 0.00 | 60 | 1005.9 |
| 20260902095320 | 90 | 322 | 6.0 | 8.0 | 0.00 | 0.00 | 0.00 | 60 | 1006.0 |
| 20260902094814 | 89 | 122 | 7.0 | 13.0 | 0.00 | 0.00 | 0.00 | 61 | 1006.0 |
| 20260902094311 | 90 | 232 | 11.0 | 14.0 | 0.00 | 0.00 | 0.00 | 60 | 1006.2 |
| 20260902093810 | 90 | 346 | 6.0 | 13.0 | 0.00 | 0.00 | 0.00 | 61 | 1006.5 |
| 20260902093305 | 89 | 347 | 6.0 | 9.0 | 0.00 | 0.00 | 0.00 | 61 | 1006.1 |
| 20260902092804 | 89 | 263 | 6.0 | 10.0 | 0.00 | 0.00 | 0.00 | 61 | 1006.3 |
| 20260902092300 | 89 | 325 | 7.0 | 11.0 | 0.00 | 0.00 | 0.00 | 61 | 1006.4 |
| 20260902091759 | 91 | 267 | 9.0 | 13.0 | 0.00 | 0.00 | 0.00 | 57 | 1006.5 |
| 20260902091256 | 91 | 355 | 3.0 | 7.0 | 0.00 | 0.00 | 0.00 | 53 | 1006.5 |
| 20260902090752 | 91 | 335 | 8.0 | 11.0 | 0.00 | 0.00 | 0.00 | 52 | 1006.5 |
| 20260902090251 | 91 | 193 | 0.0 | 5.0 | 0.00 | 0.00 | 0.00 | 50 | 1006.5 |
| 20260902085750 | 90 | 128 | 2.0 | 3.0 | 0.00 | 0.00 | 0.00 | 50 | 1006.5 |
| 20260902085246 | 90 | 304 | 6.0 | 8.0 | 0.00 | 0.00 | 0.00 | 51 | 1006.6 |
| 20260902084742 | 89 | 275 | 4.0 | 8.0 | 0.00 | 0.00 | 0.00 | 53 | 1006.5 |
| 20260902084237 | 89 | 343 | 8.0 | 9.0 | 0.00 | 0.00 | 0.00 | 52 | 1006.8 |
| 20260902083732 | 88 | 348 | 4.0 | 9.0 | 0.00 | 0.00 | 0.00 | 54 | 1007.0 |
| 20260902083227 | 88 | 331 | 4.0 | 9.0 | 0.00 | 0.00 | 0.00 | 56 | 1006.8 |
| 20260902082722 | 88 | 352 | 5.0 | 10.0 | 0.00 | 0.00 | 0.00 | 57 | 1006.9 |
| 20260902082219 | 88 | 297 | 9.0 | 14.0 | 0.00 | 0.00 | 0.00 | 56 | 1007.0 |
| 20260902081714 | 88 | 291 | 9.0 | 10.0 | 0.00 | 0.00 | 0.00 | 57 | 1007.0 |
| 20260902081209 | 87 | 348 | 1.0 | 3.0 | 0.00 | 0.00 | 0.00 | 58 | 1007.1 |
| 20260902080704 | 87 | 297 | 8.0 | 11.0 | 0.00 | 0.00 | 0.00 | 58 | 1007.0 |
| 20260902080201 | 88 | 349 | 2.0 | 7.0 | 0.00 | 0.00 | 0.00 | 57 | 1007.1 |
| 20260902075701 | 87 | 358 | 3.0 | 3.0 | 0.00 | 0.00 | 0.00 | 58 | 1007.1 |
| 20260902075157 | 87 | 324 | 7.0 | 9.0 | 0.00 | 0.00 | 0.00 | 60 | 1006.9 |
| 20260902074657 | 87 | 307 | 6.0 | 8.0 | 0.00 | 0.00 | 0.00 | 59 | 1006.9 |
| 20260902074152 | 87 | 342 | 4.0 | 6.0 | 0.00 | 0.00 | 0.00 | 59 | 1007.1 |
| 20260902073647 | 87 | 101 | 3.0 | 3.0 | 0.00 | 0.00 | 0.00 | 61 | 1007.0 |
| 20260902073143 | 86 | 336 | 4.0 | 8.0 | 0.00 | 0.00 | 0.00 | 61 | 1007.0 |
| 20260902072639 | 87 | 339 | 4.0 | 6.0 | 0.00 | 0.00 | 0.00 | 62 | 1006.9 |
| 20260902072135 | 86 | 26 | 1.0 | 3.0 | 0.00 | 0.00 | 0.00 | 64 | 1007.1 |
| 20260902071630 | 86 | 342 | 3.0 | 6.0 | 0.00 | 0.00 | 0.00 | 64 | 1007.1 |
| 20260902071126 | 86 | 89 | 0.0 | 2.0 | 0.00 | 0.00 | 0.00 | 64 | 1007.1 |
| 20260902070621 | 85 | 42 | 0.0 | 0.0 | 0.00 | 0.00 | 0.00 | 67 | 1007.1 |
| 20260902070116 | 84 | 292 | 3.0 | 7.0 | 0.00 | 0.00 | 0.00 | 67 | 1007.2 |
| 20260902065615 | 85 | 353 | 7.0 | 10.0 | 0.00 | 0.00 | 0.00 | 66 | 1007.1 |
| 20260902065111 | 84 | 307 | 1.0 | 3.0 | 0.00 | 0.00 | 0.00 | 65 | 1007.3 |
| 20260902064606 | 84 | 311 | 2.0 | 5.0 | 0.00 | 0.00 | 0.00 | 65 | 1007.3 |
| 20260902064101 | 84 | 259 | 5.0 | 8.0 | 0.00 | 0.00 | 0.00 | 67 | 1007.3 |
| 20260902063556 | 83 | 264 | 0.0 | 3.0 | 0.00 | 0.00 | 0.00 | 69 | 1007.4 |
| 20260902063051 | 84 | 346 | 3.0 | 3.0 | 0.00 | 0.00 | 0.00 | 70 | 1007.4 |
| 20260902062550 | 84 | 358 | 1.0 | 2.0 | 0.00 | 0.00 | 0.00 | 69 | 1007.4 |
| 20260902062046 | 83 | 354 | 1.0 | 2.0 | 0.00 | 0.00 | 0.00 | 71 | 1007.3 |
| 20260902061545 | 84 | 161 | 2.0 | 3.0 | 0.00 | 0.00 | 0.00 | 70 | 1007.4 |
| 20260902061041 | 83 | 163 | 1.0 | 2.0 | 0.00 | 0.00 | 0.00 | 71 | 1007.3 |
| 20260902060537 | 82 | 43 | 2.0 | 2.0 | 0.00 | 0.00 | 0.00 | 72 | 1007.3 |
| 20260902060034 | 82 | 333 | 4.0 | 5.0 | 0.00 | 0.00 | 0.00 | 72 | 1007.3 |
| 20260902055529 | 83 | 338 | 3.0 | 8.0 | 0.00 | 0.00 | 0.00 | 73 | 1007.4 |
| 20260902055024 | 83 | 108 | 1.0 | 2.0 | 0.00 | 0.00 | 0.00 | 75 | 1007.4 |
| 20260902054519 | 83 | 103 | 0.0 | 1.0 | 0.00 | 0.00 | 0.00 | 76 | 1007.5 |
| 20260902054015 | 82 | 103 | 0.0 | 1.0 | 0.00 | 0.00 | 0.00 | 76 | 1007.5 |
| 20260902053510 | 83 | 94 | 3.0 | 5.0 | 0.00 | 0.00 | 0.00 | 76 | 1007.4 |
| 20260902053010 | 82 | 171 | 0.0 | 2.0 | 0.00 | 0.00 | 0.00 | 77 | 1007.4 |
| 20260902052504 | 81 | 64 | 0.0 | 1.0 | 0.00 | 0.00 | 0.00 | 79 | 1007.3 |
| 20260902052000 | 81 | 77 | 0.0 | 1.0 | 0.00 | 0.00 | 0.00 | 79 | 1007.5 |
| 20260902051500 | 81 | 58 | 0.0 | 1.0 | 0.00 | 0.00 | 0.00 | 80 | 1007.4 |
| 20260902050958 | 80 | 80 | 1.0 | 2.0 | 0.00 | 0.00 | 0.00 | 81 | 1007.4 |
| 20260902050453 | 80 | 99 | 2.0 | 2.0 | 0.00 | 0.00 | 0.00 | 82 | 1007.3 |
| 20260902045948 | 79 | 47 | 0.0 | 1.0 | 0.00 | 0.00 | 0.00 | 83 | 1007.5 |
| 20260902045444 | 78 | 70 | 0.0 | 1.0 | 0.00 | 0.00 | 0.00 | 84 | 1007.5 |
| 20260902044940 | 78 | 30 | 1.0 | 1.0 | 0.00 | 0.00 | 0.00 | 85 | 1007.4 |
| 20260902044435 | 77 | 44 | 0.0 | 2.0 | 0.00 | 0.00 | 0.00 | 86 | 1007.4 |
| 20260902043930 | 77 | 48 | 0.0 | 0.0 | 0.00 | 0.00 | 0.00 | 86 | 1007.3 |
| 20260902043425 | 76 | 36 | 1.0 | 2.0 | 0.00 | 0.00 | 0.00 | 86 | 1007.5 |
| 20260902042920 | 76 | 39 | 0.0 | 1.0 | 0.00 | 0.00 | 0.00 | 87 | 1007.6 |
| 20260902042419 | 76 | 15 | 1.0 | 2.0 | 0.00 | 0.00 | 0.00 | 87 | 1007.5 |
| 20260902041915 | 76 | 79 | 1.0 | 2.0 | 0.00 | 0.00 | 0.00 | 87 | 1007.3 |
| 20260902041409 | 76 | 46 | 0.0 | 0.0 | 0.00 | 0.00 | 0.00 | 87 | 1007.4 |
| 20260902040911 | 75 | 9 | 0.0 | 1.0 | 0.00 | 0.00 | 0.00 | 87 | 1007.4 |
| 20260902040403 | 75 | 30 | 0.0 | 1.0 | 0.00 | 0.00 | 0.00 | 87 | 1007.1 |
| 20260902035902 | 75 | 61 | 0.0 | 1.0 | 0.00 | 0.00 | 0.00 | 87 | 1007.3 |
| 20260902035352 | 75 | 20 | 0.0 | 1.0 | 0.00 | 0.00 | 0.00 | 87 | 1007.3 |
| 20260902034851 | 75 | 4 | 0.0 | 1.0 | 0.00 | 0.00 | 0.00 | 87 | 1007.1 |
| 20260902034347 | 75 | 32 | 0.0 | 2.0 | 0.00 | 0.00 | 0.00 | 87 | 1007.4 |
| 20260902033844 | 75 | 32 | 0.0 | 0.0 | 0.00 | 0.00 | 0.00 | 87 | 1007.0 |
| 20260902033340 | 75 | 74 | 1.0 | 1.0 | 0.00 | 0.00 | 0.00 | 87 | 1007.2 |
| 20260902032839 | 75 | 56 | 0.0 | 0.0 | 0.00 | 0.00 | 0.00 | 87 | 1007.1 |
| 20260902032338 | 75 | 64 | 0.0 | 0.0 | 0.00 | 0.00 | 0.00 | 87 | 1007.1 |
| 20260902031833 | 75 | 35 | 0.0 | 1.0 | 0.00 | 0.00 | 0.00 | 87 | 1007.2 |
| 20260902031329 | 75 | 18 | 1.0 | 1.0 | 0.00 | 0.00 | 0.00 | 86 | 1007.1 |
| 20260902030819 | 75 | 46 | 0.0 | 1.0 | 0.00 | 0.00 | 0.00 | 86 | 1006.9 |
| 20260902030313 | 75 | 34 | 0.0 | 1.0 | 0.00 | 0.00 | 0.00 | 86 | 1007.1 |
| 20260902025813 | 75 | 105 | 1.0 | 2.0 | 0.00 | 0.00 | 0.00 | 86 | 1007.1 |
| 20260902025309 | 75 | 67 | 0.0 | 1.0 | 0.00 | 0.00 | 0.00 | 86 | 1006.9 |
| 20260902024803 | 75 | 51 | 0.0 | 1.0 | 0.00 | 0.00 | 0.00 | 86 | 1007.1 |
| 20260902024258 | 75 | 60 | 0.0 | 0.0 | 0.00 | 0.00 | 0.00 | 86 | 1007.0 |
| 20260902023754 | 75 | 15 | 1.0 | 1.0 | 0.00 | 0.00 | 0.00 | 86 | 1006.9 |
| 20260902023249 | 75 | 48 | 0.0 | 1.0 | 0.00 | 0.00 | 0.00 | 86 | 1006.9 |
| 20260902022748 | 75 | 49 | 0.0 | 0.0 | 0.00 | 0.00 | 0.00 | 86 | 1006.5 |
| 20260902022243 | 75 | 49 | 0.0 | 1.0 | 0.00 | 0.00 | 0.00 | 86 | 1006.8 |
| 20260902021734 | 75 | 60 | 1.0 | 2.0 | 0.00 | 0.00 | 0.00 | 86 | 1006.8 |
| 20260902021233 | 75 | 70 | 0.0 | 1.0 | 0.00 | 0.00 | 0.00 | 86 | 1006.7 |
| 20260902020730 | 75 | 84 | 1.0 | 1.0 | 0.00 | 0.00 | 0.00 | 86 | 1006.8 |
| 20260902020225 | 75 | 55 | 0.0 | 1.0 | 0.00 | 0.00 | 0.00 | 86 | 1006.6 |
| 20260902015720 | 75 | 115 | 2.0 | 2.0 | 0.00 | 0.00 | 0.00 | 86 | 1006.8 |
| 20260902015217 | 75 | 45 | 0.0 | 1.0 | 0.00 | 0.00 | 0.00 | 86 | 1006.8 |
| 20260902014712 | 75 | 66 | 0.0 | 2.0 | 0.00 | 0.00 | 0.00 | 86 | 1006.7 |
| 20260902014209 | 75 | 147 | 1.0 | 2.0 | 0.00 | 0.00 | 0.00 | 86 | 1006.7 |
| 20260902013707 | 75 | 65 | 0.0 | 1.0 | 0.00 | 0.00 | 0.00 | 86 | 1006.6 |
| 20260902013203 | 75 | 75 | 0.0 | 2.0 | 0.00 | 0.00 | 0.00 | 86 | 1006.8 |
| 20260902012658 | 75 | 67 | 1.0 | 2.0 | 0.00 | 0.00 | 0.00 | 86 | 1007.0 |
| 20260902012153 | 75 | 80 | 1.0 | 2.0 | 0.00 | 0.00 | 0.00 | 86 | 1006.9 |
| 20260902011648 | 75 | 92 | 1.0 | 5.0 | 0.00 | 0.00 | 0.00 | 86 | 1006.7 |
| 20260902011143 | 76 | 69 | 1.0 | 2.0 | 0.00 | 0.00 | 0.00 | 86 | 1006.6 |
| 20260902010642 | 75 | 41 | 0.0 | 1.0 | 0.00 | 0.00 | 0.00 | 86 | 1006.8 |
| 20260902010138 | 75 | 99 | 1.0 | 1.0 | 0.00 | 0.00 | 0.00 | 86 | 1006.8 |
| 20260902005636 | 75 | 74 | 1.0 | 2.0 | 0.00 | 0.00 | 0.00 | 86 | 1006.8 |
| 20260902005132 | 75 | 83 | 1.0 | 2.0 | 0.00 | 0.00 | 0.00 | 86 | 1006.8 |
| 20260902004632 | 75 | 66 | 1.0 | 1.0 | 0.00 | 0.00 | 0.00 | 86 | 1006.7 |
| 20260902004127 | 76 | 43 | 0.0 | 0.0 | 0.00 | 0.00 | 0.00 | 86 | 1006.9 |
| 20260902003622 | 76 | 88 | 0.0 | 1.0 | 0.00 | 0.00 | 0.00 | 86 | 1006.5 |
| 20260902003117 | 76 | 72 | 1.0 | 1.0 | 0.00 | 0.00 | 0.00 | 86 | 1006.6 |
| 20260902002613 | 76 | 31 | 0.0 | 1.0 | 0.00 | 0.00 | 0.00 | 85 | 1006.5 |
| 20260902002108 | 76 | 62 | 0.0 | 0.0 | 0.00 | 0.00 | 0.00 | 85 | 1006.7 |
| 20260902001603 | 76 | 50 | 0.0 | 1.0 | 0.00 | 0.00 | 0.00 | 85 | 1006.9 |
| 20260902001058 | 76 | 93 | 1.0 | 1.0 | 0.00 | 0.00 | 0.00 | 85 | 1006.6 |
| 20260902000552 | 76 | 23 | 0.0 | 1.0 | 0.00 | 0.00 | 0.00 | 85 | 1006.6 |
| 20260902000048 | 76 | 76 | 1.0 | 2.0 | 0.00 | 0.00 | 0.00 | 85 | 1006.6 |
| 20260901235541 | 76 | 88 | 0.0 | 1.0 | 0.00 | 0.00 | 0.00 | 85 | 1006.7 |
| 20260901235038 | 76 | 37 | 0.0 | 0.0 | 0.00 | 0.00 | 0.00 | 85 | 1006.9 |
| 20260901234536 | 76 | 72 | 1.0 | 2.0 | 0.00 | 0.00 | 0.00 | 85 | 1006.6 |
| 20260901234032 | 76 | 58 | 0.0 | 2.0 | 0.00 | 0.00 | 0.00 | 84 | 1006.9 |
| 20260901233531 | 77 | 88 | 0.0 | 2.0 | 0.00 | 0.00 | 0.00 | 84 | 1006.6 |
| 20260901233028 | 77 | 57 | 0.0 | 1.0 | 0.00 | 0.00 | 0.00 | 84 | 1006.7 |
| 20260901232523 | 77 | 58 | 0.0 | 0.0 | 0.00 | 0.00 | 0.00 | 84 | 1006.9 |
| 20260901232018 | 77 | 293 | 1.0 | 2.0 | 0.00 | 0.00 | 0.00 | 84 | 1006.8 |
| 20260901231514 | 77 | 121 | 2.0 | 2.0 | 0.00 | 0.00 | 0.00 | 84 | 1006.5 |
| 20260901231011 | 77 | 57 | 1.0 | 3.0 | 0.00 | 0.00 | 0.00 | 84 | 1006.9 |
| 20260901230510 | 77 | 114 | 1.0 | 2.0 | 0.00 | 0.00 | 0.00 | 84 | 1006.8 |
| 20260901230006 | 77 | 26 | 0.0 | 0.0 | 0.00 | 0.00 | 0.00 | 83 | 1006.6 |
| 20260901225500 | 77 | 62 | 0.0 | 1.0 | 0.00 | 0.00 | 0.00 | 84 | 1006.9 |
| 20260901224954 | 77 | 67 | 0.0 | 1.0 | 0.00 | 0.00 | 0.00 | 83 | 1006.8 |
| 20260901224450 | 77 | 58 | 0.0 | 0.0 | 0.00 | 0.00 | 0.00 | 83 | 1006.9 |
| 20260901223946 | 78 | 58 | 0.0 | 1.0 | 0.00 | 0.00 | 0.00 | 83 | 1007.0 |
| 20260901223442 | 78 | 90 | 1.0 | 2.0 | 0.00 | 0.00 | 0.00 | 83 | 1007.0 |
| 20260901222937 | 78 | 91 | 1.0 | 2.0 | 0.00 | 0.00 | 0.00 | 83 | 1007.0 |
| 20260901222433 | 78 | 114 | 2.0 | 2.0 | 0.00 | 0.00 | 0.00 | 83 | 1007.0 |
| 20260901221929 | 78 | 59 | 0.0 | 1.0 | 0.00 | 0.00 | 0.00 | 83 | 1006.9 |
| 20260901221425 | 78 | 104 | 0.0 | 1.0 | 0.00 | 0.00 | 0.00 | 83 | 1006.9 |
| 20260901220920 | 78 | 55 | 1.0 | 1.0 | 0.00 | 0.00 | 0.00 | 83 | 1007.0 |
| 20260901220419 | 77 | 71 | 1.0 | 1.0 | 0.00 | 0.00 | 0.00 | 83 | 1007.2 |
| 20260901215918 | 77 | 55 | 0.0 | 0.0 | 0.00 | 0.00 | 0.00 | 83 | 1006.9 |
| 20260901215416 | 77 | 36 | 0.0 | 0.0 | 0.00 | 0.00 | 0.00 | 83 | 1007.1 |
| 20260901214916 | 77 | 4 | 0.0 | 1.0 | 0.00 | 0.00 | 0.00 | 83 | 1007.0 |
| 20260901214414 | 78 | 61 | 0.0 | 1.0 | 0.00 | 0.00 | 0.00 | 83 | 1007.1 |
| 20260901213914 | 77 | 49 | 0.0 | 0.0 | 0.00 | 0.00 | 0.00 | 82 | 1007.1 |
| 20260901213409 | 78 | 43 | 0.0 | 0.0 | 0.00 | 0.00 | 0.00 | 82 | 1007.2 |
| 20260901212908 | 78 | 79 | 0.0 | 1.0 | 0.00 | 0.00 | 0.00 | 82 | 1007.0 |
| 20260901212404 | 78 | 82 | 1.0 | 2.0 | 0.00 | 0.00 | 0.00 | 82 | 1006.8 |
| 20260901211901 | 78 | 40 | 0.0 | 1.0 | 0.00 | 0.00 | 0.00 | 82 | 1007.0 |
| 20260901211356 | 78 | 89 | 2.0 | 2.0 | 0.00 | 0.00 | 0.00 | 82 | 1007.1 |
| 20260901210851 | 78 | 80 | 1.0 | 2.0 | 0.00 | 0.00 | 0.00 | 82 | 1007.0 |
| 20260901210347 | 78 | 69 | 0.0 | 1.0 | 0.00 | 0.00 | 0.00 | 82 | 1007.0 |
| 20260901205843 | 78 | 61 | 0.0 | 0.0 | 0.00 | 0.00 | 0.00 | 82 | 1006.9 |
| 20260901205337 | 78 | 39 | 0.0 | 0.0 | 0.00 | 0.00 | 0.00 | 82 | 1007.1 |
| 20260901204832 | 78 | 61 | 0.0 | 1.0 | 0.00 | 0.00 | 0.00 | 82 | 1007.1 |
| 20260901204328 | 78 | 60 | 0.0 | 0.0 | 0.00 | 0.00 | 0.00 | 82 | 1007.1 |
| 20260901203824 | 78 | 54 | 0.0 | 0.0 | 0.00 | 0.00 | 0.00 | 82 | 1007.2 |
| 20260901203322 | 78 | 53 | 0.0 | 0.0 | 0.00 | 0.00 | 0.00 | 82 | 1007.0 |
| 20260901202817 | 78 | 25 | 0.0 | 0.0 | 0.00 | 0.00 | 0.00 | 82 | 1007.3 |
| 20260901202312 | 78 | 30 | 0.0 | 1.0 | 0.00 | 0.00 | 0.00 | 81 | 1007.1 |
| 20260901201809 | 78 | 84 | 0.0 | 1.0 | 0.00 | 0.00 | 0.00 | 82 | 1007.0 |
| 20260901201309 | 78 | 181 | 1.0 | 1.0 | 0.00 | 0.00 | 0.00 | 81 | 1007.1 |
| 20260901200809 | 78 | 31 | 0.0 | 0.0 | 0.00 | 0.00 | 0.00 | 81 | 1007.0 |
| 20260901200304 | 78 | 35 | 0.0 | 0.0 | 0.00 | 0.00 | 0.00 | 81 | 1007.2 |
| 20260901195801 | 78 | 32 | 0.0 | 0.0 | 0.00 | 0.00 | 0.00 | 81 | 1007.0 |
| 20260901195255 | 78 | 13 | 1.0 | 1.0 | 0.00 | 0.00 | 0.00 | 80 | 1006.9 |
| 20260901194751 | 78 | 35 | 0.0 | 1.0 | 0.00 | 0.00 | 0.00 | 80 | 1007.1 |
| 20260901194246 | 78 | 32 | 0.0 | 1.0 | 0.00 | 0.00 | 0.00 | 80 | 1007.2 |
| 20260901193743 | 79 | 32 | 0.0 | 0.0 | 0.00 | 0.00 | 0.00 | 80 | 1007.2 |
| 20260901193241 | 79 | 27 | 0.0 | 0.0 | 0.00 | 0.00 | 0.00 | 80 | 1007.3 |
| 20260901192736 | 79 | 36 | 0.0 | 0.0 | 0.00 | 0.00 | 0.00 | 80 | 1007.2 |
| 20260901192231 | 79 | 23 | 0.0 | 1.0 | 0.00 | 0.00 | 0.00 | 80 | 1007.2 |
| 20260901191727 | 79 | 35 | 0.0 | 0.0 | 0.00 | 0.00 | 0.00 | 80 | 1007.4 |
| 20260901191223 | 79 | 33 | 0.0 | 0.0 | 0.00 | 0.00 | 0.00 | 79 | 1007.3 |
| 20260901190719 | 79 | 20 | 0.0 | 1.0 | 0.00 | 0.00 | 0.00 | 79 | 1007.4 |
| 20260901190218 | 80 | 1 | 1.0 | 1.0 | 0.00 | 0.00 | 0.00 | 79 | 1007.3 |
| 20260901185717 | 80 | 29 | 2.0 | 2.0 | 0.00 | 0.00 | 0.00 | 79 | 1007.6 |
| 20260901185215 | 80 | 22 | 1.0 | 1.0 | 0.00 | 0.00 | 0.00 | 78 | 1007.5 |
| 20260901184711 | 80 | 43 | 1.0 | 2.0 | 0.00 | 0.00 | 0.00 | 78 | 1007.4 |
| 20260901184206 | 80 | 0 | 1.0 | 2.0 | 0.00 | 0.00 | 0.00 | 78 | 1007.5 |
| 20260901183701 | 80 | 9 | 1.0 | 2.0 | 0.00 | 0.00 | 0.00 | 78 | 1007.5 |
| 20260901183200 | 80 | 20 | 1.0 | 2.0 | 0.00 | 0.00 | 0.00 | 78 | 1007.2 |
| 20260901182657 | 80 | 13 | 1.0 | 2.0 | 0.00 | 0.00 | 0.00 | 77 | 1007.3 |
| 20260901182156 | 80 | 52 | 0.0 | 1.0 | 0.00 | 0.00 | 0.00 | 77 | 1007.4 |
| 20260901181651 | 80 | 40 | 1.0 | 2.0 | 0.00 | 0.00 | 0.00 | 77 | 1007.2 |
| 20260901181145 | 80 | 32 | 1.0 | 2.0 | 0.00 | 0.00 | 0.00 | 77 | 1007.5 |
| 20260901180639 | 80 | 9 | 1.0 | 2.0 | 0.00 | 0.00 | 0.00 | 77 | 1007.2 |
| 20260901180133 | 81 | 34 | 2.0 | 2.0 | 0.00 | 0.00 | 0.00 | 77 | 1007.3 |
| 20260901175632 | 81 | 13 | 1.0 | 2.0 | 0.00 | 0.00 | 0.00 | 77 | 1007.3 |
| 20260901175122 | 81 | 47 | 2.0 | 3.0 | 0.00 | 0.00 | 0.00 | 76 | 1007.3 |
| 20260901174618 | 81 | 354 | 2.0 | 2.0 | 0.00 | 0.00 | 0.00 | 76 | 1007.1 |
| 20260901174113 | 81 | 43 | 2.0 | 2.0 | 0.00 | 0.00 | 0.00 | 76 | 1007.0 |
| 20260901173613 | 81 | 18 | 1.0 | 3.0 | 0.00 | 0.00 | 0.00 | 75 | 1007.0 |
| 20260901173109 | 81 | 2 | 2.0 | 2.0 | 0.00 | 0.00 | 0.00 | 75 | 1007.1 |
| 20260901172604 | 81 | 11 | 2.0 | 3.0 | 0.00 | 0.00 | 0.00 | 75 | 1006.8 |
| 20260901172103 | 81 | 56 | 2.0 | 5.0 | 0.00 | 0.00 | 0.00 | 75 | 1006.7 |
| 20260901171602 | 81 | 345 | 3.0 | 7.0 | 0.00 | 0.00 | 0.00 | 75 | 1006.8 |
| 20260901171101 | 82 | 42 | 3.0 | 5.0 | 0.00 | 0.00 | 0.00 | 74 | 1006.7 |
| 20260901170555 | 82 | 29 | 3.0 | 5.0 | 0.00 | 0.00 | 0.00 | 74 | 1006.6 |
| 20260901170050 | 82 | 67 | 3.0 | 6.0 | 0.00 | 0.00 | 0.00 | 74 | 1006.6 |
| 20260901165549 | 82 | 338 | 5.0 | 5.0 | 0.00 | 0.00 | 0.00 | 74 | 1006.8 |
| 20260901165045 | 82 | 27 | 4.0 | 8.0 | 0.00 | 0.00 | 0.00 | 73 | 1006.5 |
| 20260901164540 | 82 | 338 | 3.0 | 6.0 | 0.00 | 0.00 | 0.00 | 73 | 1006.6 |
| 20260901164036 | 82 | 36 | 3.0 | 6.0 | 0.00 | 0.00 | 0.00 | 73 | 1006.4 |
| 20260901163531 | 82 | 69 | 4.0 | 8.0 | 0.00 | 0.00 | 0.00 | 73 | 1006.4 |
| 20260901163030 | 82 | 334 | 5.0 | 7.0 | 0.00 | 0.00 | 0.00 | 72 | 1006.4 |
| 20260901162526 | 82 | 338 | 6.0 | 8.0 | 0.00 | 0.00 | 0.00 | 72 | 1006.2 |
| 20260901162025 | 83 | 332 | 6.0 | 9.0 | 0.00 | 0.00 | 0.00 | 71 | 1006.3 |
| 20260901161524 | 83 | 17 | 3.0 | 7.0 | 0.00 | 0.00 | 0.00 | 70 | 1006.3 |
| 20260901161024 | 83 | 350 | 7.0 | 9.0 | 0.00 | 0.00 | 0.00 | 69 | 1006.2 |
| 20260901160520 | 83 | 343 | 4.0 | 7.0 | 0.00 | 0.00 | 0.00 | 69 | 1006.3 |
| 20260901160015 | 83 | 2 | 2.0 | 7.0 | 0.00 | 0.00 | 0.00 | 69 | 1006.1 |
| 20260901155513 | 84 | 329 | 9.0 | 13.0 | 0.00 | 0.00 | 0.00 | 68 | 1006.1 |
| 20260901155010 | 84 | 305 | 8.0 | 9.0 | 0.00 | 0.00 | 0.00 | 68 | 1006.2 |
| 20260901154510 | 84 | 346 | 8.0 | 9.0 | 0.00 | 0.00 | 0.00 | 67 | 1006.2 |
| 20260901154009 | 85 | 348 | 5.0 | 8.0 | 0.00 | 0.00 | 0.00 | 66 | 1006.2 |
| 20260901153505 | 85 | 325 | 7.0 | 9.0 | 0.00 | 0.00 | 0.00 | 65 | 1006.2 |
| 20260901153004 | 85 | 323 | 5.0 | 8.0 | 0.00 | 0.00 | 0.00 | 65 | 1006.3 |
| 20260901152459 | 85 | 345 | 5.0 | 9.0 | 0.00 | 0.00 | 0.00 | 64 | 1006.2 |
| 20260901151958 | 86 | 36 | 4.0 | 6.0 | 0.00 | 0.00 | 0.00 | 63 | 1006.2 |
| 20260901151454 | 86 | 337 | 7.0 | 9.0 | 0.00 | 0.00 | 0.00 | 62 | 1006.1 |
| 20260901150953 | 86 | 24 | 2.0 | 9.0 | 0.00 | 0.00 | 0.00 | 62 | 1006.4 |
| 20260901150451 | 86 | 344 | 4.0 | 7.0 | 0.00 | 0.00 | 0.00 | 62 | 1006.4 |
| 20260901145949 | 86 | 344 | 4.0 | 6.0 | 0.00 | 0.00 | 0.00 | 62 | 1006.2 |
| 20260901145443 | 86 | 350 | 7.0 | 10.0 | 0.00 | 0.00 | 0.00 | 62 | 1006.3 |
| 20260901144938 | 86 | 331 | 10.0 | 13.0 | 0.00 | 0.00 | 0.00 | 63 | 1006.1 |
| 20260901144433 | 86 | 29 | 7.0 | 11.0 | 0.00 | 0.00 | 0.00 | 63 | 1006.3 |
| 20260901143928 | 86 | 7 | 5.0 | 9.0 | 0.00 | 0.00 | 0.00 | 64 | 1006.3 |
| 20260901143424 | 86 | 339 | 8.0 | 9.0 | 0.00 | 0.00 | 0.00 | 63 | 1006.3 |
| 20260901142920 | 86 | 8 | 11.0 | 14.0 | 0.00 | 0.00 | 0.00 | 63 | 1006.1 |
| 20260901142420 | 86 | 22 | 5.0 | 11.0 | 0.00 | 0.00 | 0.00 | 64 | 1006.1 |
| 20260901141915 | 86 | 345 | 10.0 | 11.0 | 0.00 | 0.00 | 0.00 | 63 | 1005.8 |
| 20260901141409 | 86 | 342 | 6.0 | 13.0 | 0.00 | 0.00 | 0.00 | 62 | 1006.0 |
| 20260901140909 | 87 | 348 | 8.0 | 11.0 | 0.00 | 0.00 | 0.00 | 62 | 1006.0 |
| 20260901140407 | 86 | 276 | 6.0 | 8.0 | 0.00 | 0.00 | 0.00 | 62 | 1005.9 |
| 20260901135902 | 86 | 352 | 12.0 | 16.0 | 0.00 | 0.00 | 0.00 | 62 | 1006.1 |
| 20260901135357 | 87 | 328 | 9.0 | 11.0 | 0.00 | 0.00 | 0.00 | 61 | 1005.9 |
| 20260901134853 | 87 | 355 | 5.0 | 14.0 | 0.00 | 0.00 | 0.00 | 60 | 1006.1 |
| 20260901134348 | 87 | 304 | 5.0 | 10.0 | 0.00 | 0.00 | 0.00 | 61 | 1005.8 |
| 20260901133842 | 87 | 328 | 11.0 | 16.0 | 0.00 | 0.00 | 0.00 | 61 | 1006.0 |
| 20260901133341 | 87 | 73 | 4.0 | 10.0 | 0.00 | 0.00 | 0.00 | 60 | 1006.0 |
| 20260901132840 | 87 | 338 | 9.0 | 11.0 | 0.00 | 0.00 | 0.00 | 60 | 1005.9 |
| 20260901132335 | 87 | 338 | 9.0 | 14.0 | 0.00 | 0.00 | 0.00 | 59 | 1006.1 |
| 20260901131830 | 87 | 327 | 9.0 | 16.0 | 0.00 | 0.00 | 0.00 | 61 | 1006.2 |
| 20260901131329 | 88 | 339 | 9.0 | 15.0 | 0.00 | 0.00 | 0.00 | 59 | 1006.0 |
| 20260901130824 | 88 | 269 | 6.0 | 8.0 | 0.00 | 0.00 | 0.00 | 58 | 1006.0 |
| 20260901130319 | 89 | 284 | 11.0 | 16.0 | 0.00 | 0.00 | 0.00 | 58 | 1006.1 |
| 20260901125816 | 88 | 25 | 7.0 | 11.0 | 0.00 | 0.00 | 0.00 | 58 | 1006.0 |
| 20260901125311 | 87 | 358 | 6.0 | 9.0 | 0.00 | 0.00 | 0.00 | 58 | 1006.1 |
| 20260901124806 | 87 | 311 | 10.0 | 15.0 | 0.00 | 0.00 | 0.00 | 58 | 1006.3 |
| 20260901124301 | 87 | 238 | 11.0 | 14.0 | 0.00 | 0.00 | 0.00 | 58 | 1006.1 |
| 20260901123800 | 88 | 308 | 9.0 | 14.0 | 0.00 | 0.00 | 0.00 | 58 | 1006.1 |
| 20260901123255 | 88 | 84 | 6.0 | 14.0 | 0.00 | 0.00 | 0.00 | 57 | 1006.2 |
| 20260901122754 | 88 | 350 | 10.0 | 13.0 | 0.00 | 0.00 | 0.00 | 58 | 1006.1 |
| 20260901122248 | 88 | 13 | 9.0 | 15.0 | 0.00 | 0.00 | 0.00 | 57 | 1006.1 |
| 20260901121743 | 87 | 7 | 4.0 | 14.0 | 0.00 | 0.00 | 0.00 | 59 | 1006.4 |
| 20260901121238 | 89 | 22 | 14.0 | 16.0 | 0.00 | 0.00 | 0.00 | 57 | 1006.1 |
| 20260901120737 | 89 | 5 | 6.0 | 11.0 | 0.00 | 0.00 | 0.00 | 57 | 1006.1 |
| 20260901120232 | 88 | 357 | 7.0 | 13.0 | 0.00 | 0.00 | 0.00 | 58 | 1006.1 |
| 20260901115728 | 88 | 271 | 8.0 | 10.0 | 0.00 | 0.00 | 0.00 | 59 | 1006.0 |
| 20260901115224 | 88 | 337 | 9.0 | 16.0 | 0.00 | 0.00 | 0.00 | 59 | 1006.0 |
| 20260901114720 | 88 | 350 | 11.0 | 14.0 | 0.00 | 0.00 | 0.00 | 58 | 1006.0 |
| 20260901114214 | 88 | 329 | 11.0 | 14.0 | 0.00 | 0.00 | 0.00 | 59 | 1006.0 |
| 20260901113708 | 89 | 64 | 6.0 | 13.0 | 0.00 | 0.00 | 0.00 | 58 | 1006.1 |